sat.trackr.live / text

‹ back to catalog

STARLINK-3575

NORAD 51878 · 2022-022AC

PAYLOAD ACTIVE UNKNOWN

§ Identity

Operator
Country
US
Launch date
2022-03-03
Launch site
AFETR
Launch vehicle
Mass (kg)
RCS (m²)

Purposes: comms

External: N2YO · Heavens-Above · Gunter

§ Orbital elements

Epoch: 2026-09-20T03:57:46.838880Z

Period
93.79 min
Inclination
53.1592°
Eccentricity
0.0001304
Mean motion
15.35404619 rev/d
Perigee alt
458.8 km
Apogee alt
460.6 km
Semi-major
6,837.9 km
B*
6.9304e-5
RAAN
205.8033°
Arg perigee
80.3873°
Mean anomaly
279.7277°
Rev number
25,261

§ Raw data

STARLINK-35751 51878U 22022AC  26263.16512545  .00002038  00000+0  69304-4 0  99932 51878  53.1592 205.8033 0001304  80.3873 279.7277 15.35404619252619

JSON: /api/v1/satellites/51878 · /tle

For live sub-satellite position, see the globe view (requires WebGL).

§ Visibility from observer

Set your observer location to see the next 7 days of passes ≥ 10°. The values pass through the URL so the page stays shareable.

No JS? Fill the form by hand. The geolocation button needs JavaScript.